Time,TemperatureF,DewpointF,PressureIn,WindDirection,WindDirectionDegrees,WindSpeedMPH,WindSpeedGustMPH,Humidity,HourlyPrecipIn,Conditions,Clouds,dailyrainin,SoftwareType,DateUTC
2013-07-19 00:03:00,75.1,72.0,30.13,East,96,0.0,0.0,90,0.00,,,0.00,WUHU216DAVISVP2,2013-07-19 04:03:00,
2013-07-19 00:08:00,75.1,72.0,30.13,East,96,0.0,0.0,90,0.00,,,0.00,WUHU216DAVISVP2,2013-07-19 04:08:00,
2013-07-19 00:13:00,75.0,71.9,30.13,East,96,0.0,0.0,90,0.00,,,0.00,WUHU216DAVISVP2,2013-07-19 04:13:00,
2013-07-19 00:18:00,74.9,72.1,30.13,East,96,0.0,1.0,91,0.00,,,0.00,WUHU216DAVISVP2,2013-07-19 04:18:00,
2013-07-19 00:24:00,74.8,72.0,30.13,East,96,0.0,1.0,91,0.00,,,0.00,WUHU216DAVISVP2,2013-07-19 04:24:00,
2013-07-19 00:29:00,74.8,72.0,30.13,East,96,0.0,1.0,91,0.00,,,0.00,WUHU216DAVISVP2,2013-07-19 04:29:00,
2013-07-19 00:34:00,74.7,71.9,30.13,East,96,0.0,1.0,91,0.00,,,0.00,WUHU216DAVISVP2,2013-07-19 04:34:00,
2013-07-19 00:39:00,74.6,71.8,30.13,East,96,0.0,0.0,91,0.00,,,0.00,WUHU216DAVISVP2,2013-07-19 04:39:00,
2013-07-19 00:44:00,74.6,71.8,30.13,East,96,0.0,0.0,91,0.00,,,0.00,WUHU216DAVISVP2,2013-07-19 04:44:00,
2013-07-19 00:49:00,74.6,71.8,30.13,East,96,0.0,0.0,91,0.00,,,0.00,WUHU216DAVISVP2,2013-07-19 04:49:00,
2013-07-19 00:54:00,74.5,71.7,30.13,East,96,0.0,0.0,91,0.00,,,0.00,WUHU216DAVISVP2,2013-07-19 04:54:00,
2013-07-19 00:59:00,74.4,71.9,30.13,East,96,0.0,0.0,92,0.00,,,0.00,WUHU216DAVISVP2,2013-07-19 04:59:00,
2013-07-19 01:04:00,74.3,71.8,30.13,East,96,0.0,0.0,92,0.00,,,0.00,WUHU216DAVISVP2,2013-07-19 05:04:00,
2013-07-19 01:09:00,74.2,71.7,30.13,East,96,0.0,0.0,92,0.00,,,0.00,WUHU216DAVISVP2,2013-07-19 05:09:00,
2013-07-19 01:14:00,74.1,71.6,30.13,East,96,0.0,1.0,92,0.00,,,0.00,WUHU216DAVISVP2,2013-07-19 05:14:00,
2013-07-19 01:19:00,74.0,71.5,30.13,East,96,0.0,1.0,92,0.00,,,0.00,WUHU216DAVISVP2,2013-07-19 05:19:00,
2013-07-19 01:24:00,74.0,71.5,30.13,East,96,0.0,1.0,92,0.00,,,0.00,WUHU216DAVISVP2,2013-07-19 05:24:00,
2013-07-19 01:29:00,73.9,71.4,30.12,East,96,0.0,1.0,92,0.00,,,0.00,WUHU216DAVISVP2,2013-07-19 05:29:00,
2013-07-19 01:34:00,73.8,71.6,30.12,East,96,0.0,0.0,93,0.00,,,0.00,WUHU216DAVISVP2,2013-07-19 05:34:00,
2013-07-19 01:40:00,73.7,71.5,30.12,East,96,0.0,0.0,93,0.00,,,0.00,WUHU216DAVISVP2,2013-07-19 05:40:00,
2013-07-19 01:45:00,73.6,71.4,30.12,East,96,0.0,0.0,93,0.00,,,0.00,WUHU216DAVISVP2,2013-07-19 05:45:00,
2013-07-19 01:50:00,73.5,71.3,30.12,East,96,0.0,0.0,93,0.00,,,0.00,WUHU216DAVISVP2,2013-07-19 05:50:00,
2013-07-19 01:55:00,73.5,71.3,30.12,East,96,0.0,0.0,93,0.00,,,0.00,WUHU216DAVISVP2,2013-07-19 05:55:00,
2013-07-19 02:00:00,73.4,71.2,30.12,East,96,0.0,0.0,93,0.00,,,0.00,WUHU216DAVISVP2,2013-07-19 06:00:00,
2013-07-19 02:05:00,73.3,71.1,30.12,East,96,0.0,0.0,93,0.00,,,0.00,WUHU216DAVISVP2,2013-07-19 06:05:00,
2013-07-19 02:10:00,73.3,71.1,30.12,East,96,0.0,0.0,93,0.00,,,0.00,WUHU216DAVISVP2,2013-07-19 06:10:00,
2013-07-19 02:15:00,73.2,71.0,30.12,East,96,0.0,0.0,93,0.00,,,0.00,WUHU216DAVISVP2,2013-07-19 06:15:00,
2013-07-19 02:20:00,73.1,71.2,30.11,East,96,0.0,0.0,94,0.00,,,0.00,WUHU216DAVISVP2,2013-07-19 06:20:00,
2013-07-19 02:25:00,73.2,71.3,30.11,East,96,0.0,0.0,94,0.00,,,0.00,WUHU216DAVISVP2,2013-07-19 06:25:00,
2013-07-19 02:30:00,73.1,70.9,30.11,East,96,0.0,0.0,93,0.00,,,0.00,WUHU216DAVISVP2,2013-07-19 06:30:00,
2013-07-19 02:35:00,73.1,71.2,30.11,East,96,0.0,0.0,94,0.00,,,0.00,WUHU216DAVISVP2,2013-07-19 06:35:00,
2013-07-19 02:40:00,73.0,71.1,30.11,East,96,0.0,0.0,94,0.00,,,0.00,WUHU216DAVISVP2,2013-07-19 06:40:00,
2013-07-19 02:45:00,73.0,71.1,30.11,East,96,0.0,0.0,94,0.00,,,0.00,WUHU216DAVISVP2,2013-07-19 06:45:00,
2013-07-19 02:50:00,73.0,71.1,30.11,East,96,0.0,0.0,94,0.00,,,0.00,WUHU216DAVISVP2,2013-07-19 06:50:00,
2013-07-19 02:56:00,72.9,71.0,30.10,East,96,0.0,0.0,94,0.00,,,0.00,WUHU216DAVISVP2,2013-07-19 06:56:00,
2013-07-19 03:01:00,72.9,71.0,30.11,East,96,0.0,0.0,94,0.00,,,0.00,WUHU216DAVISVP2,2013-07-19 07:01:00,
2013-07-19 03:06:00,72.8,70.9,30.10,East,96,0.0,0.0,94,0.00,,,0.00,WUHU216DAVISVP2,2013-07-19 07:06:00,
2013-07-19 03:11:00,72.8,70.9,30.10,East,96,0.0,0.0,94,0.00,,,0.00,WUHU216DAVISVP2,2013-07-19 07:11:00,
2013-07-19 03:16:00,72.7,70.8,30.10,East,96,0.0,0.0,94,0.00,,,0.00,WUHU216DAVISVP2,2013-07-19 07:16:00,
2013-07-19 03:21:00,72.6,70.7,30.10,East,96,0.0,0.0,94,0.00,,,0.00,WUHU216DAVISVP2,2013-07-19 07:21:00,
2013-07-19 03:26:00,72.6,70.7,30.10,East,96,0.0,0.0,94,0.00,,,0.00,WUHU216DAVISVP2,2013-07-19 07:26:00,
2013-07-19 03:31:00,72.7,70.8,30.10,East,96,0.0,0.0,94,0.00,,,0.00,WUHU216DAVISVP2,2013-07-19 07:31:00,
2013-07-19 03:36:00,72.7,70.8,30.10,East,96,0.0,0.0,94,0.00,,,0.00,WUHU216DAVISVP2,2013-07-19 07:36:00,
2013-07-19 03:41:00,72.8,70.9,30.10,East,96,0.0,0.0,94,0.00,,,0.00,WUHU216DAVISVP2,2013-07-19 07:41:00,
2013-07-19 03:46:00,72.7,70.8,30.10,East,96,0.0,0.0,94,0.00,,,0.00,WUHU216DAVISVP2,2013-07-19 07:46:00,
2013-07-19 03:51:00,72.6,70.7,30.10,East,96,0.0,0.0,94,0.00,,,0.00,WUHU216DAVISVP2,2013-07-19 07:51:00,
2013-07-19 03:56:00,72.5,70.6,30.10,East,96,0.0,1.0,94,0.00,,,0.00,WUHU216DAVISVP2,2013-07-19 07:56:00,
2013-07-19 04:01:00,72.5,70.6,30.10,East,96,0.0,1.0,94,0.00,,,0.00,WUHU216DAVISVP2,2013-07-19 08:01:00,
2013-07-19 04:06:00,72.5,71.0,30.11,East,96,0.0,1.0,95,0.00,,,0.00,WUHU216DAVISVP2,2013-07-19 08:06:00,
2013-07-19 04:11:00,72.6,71.1,30.11,East,96,0.0,1.0,95,0.00,,,0.00,WUHU216DAVISVP2,2013-07-19 08:11:00,
2013-07-19 04:17:00,72.5,70.6,30.11,East,96,0.0,1.0,94,0.00,,,0.00,WUHU216DAVISVP2,2013-07-19 08:17:00,
2013-07-19 04:22:00,72.5,70.6,30.11,East,96,0.0,1.0,94,0.00,,,0.00,WUHU216DAVISVP2,2013-07-19 08:22:00,
2013-07-19 04:27:00,72.4,70.5,30.11,East,96,0.0,1.0,94,0.00,,,0.00,WUHU216DAVISVP2,2013-07-19 08:27:00,
2013-07-19 04:32:00,72.2,70.3,30.11,East,96,0.0,1.0,94,0.00,,,0.00,WUHU216DAVISVP2,2013-07-19 08:32:00,
2013-07-19 04:37:00,72.1,70.2,30.10,East,96,0.0,1.0,94,0.00,,,0.00,WUHU216DAVISVP2,2013-07-19 08:37:00,
2013-07-19 04:42:00,72.1,70.6,30.10,East,96,0.0,1.0,95,0.00,,,0.00,WUHU216DAVISVP2,2013-07-19 08:42:00,
2013-07-19 04:47:00,72.2,70.7,30.10,East,96,0.0,1.0,95,0.00,,,0.00,WUHU216DAVISVP2,2013-07-19 08:47:00,
2013-07-19 04:52:00,72.1,70.2,30.11,East,96,0.0,1.0,94,0.00,,,0.00,WUHU216DAVISVP2,2013-07-19 08:52:00,
2013-07-19 04:58:00,72.0,70.1,30.11,East,96,0.0,1.0,94,0.00,,,0.00,WUHU216DAVISVP2,2013-07-19 08:58:00,
2013-07-19 05:03:00,71.9,70.4,30.10,East,96,0.0,1.0,95,0.00,,,0.00,WUHU216DAVISVP2,2013-07-19 09:03:00,
2013-07-19 05:08:00,71.9,70.4,30.10,East,96,0.0,1.0,95,0.00,,,0.00,WUHU216DAVISVP2,2013-07-19 09:08:00,
2013-07-19 05:13:00,71.8,70.3,30.10,East,96,0.0,1.0,95,0.00,,,0.00,WUHU216DAVISVP2,2013-07-19 09:13:00,
2013-07-19 05:18:00,71.7,70.2,30.10,East,96,1.0,1.0,95,0.00,,,0.00,WUHU216DAVISVP2,2013-07-19 09:18:00,
2013-07-19 05:23:00,71.7,70.2,30.10,East,96,0.0,1.0,95,0.00,,,0.00,WUHU216DAVISVP2,2013-07-19 09:23:00,
2013-07-19 05:28:00,71.7,70.2,30.11,East,96,0.0,1.0,95,0.00,,,0.00,WUHU216DAVISVP2,2013-07-19 09:28:00,
2013-07-19 05:33:00,71.6,70.1,30.11,East,96,0.0,1.0,95,0.00,,,0.00,WUHU216DAVISVP2,2013-07-19 09:33:00,
2013-07-19 05:38:00,71.5,70.0,30.11,East,96,0.0,0.0,95,0.00,,,0.00,WUHU216DAVISVP2,2013-07-19 09:38:00,
2013-07-19 05:43:00,71.5,70.0,30.11,East,96,0.0,0.0,95,0.00,,,0.00,WUHU216DAVISVP2,2013-07-19 09:43:00,
2013-07-19 05:48:00,71.5,70.0,30.11,East,96,0.0,0.0,95,0.00,,,0.00,WUHU216DAVISVP2,2013-07-19 09:48:00,
2013-07-19 05:53:00,71.4,69.9,30.11,East,96,0.0,1.0,95,0.00,,,0.00,WUHU216DAVISVP2,2013-07-19 09:53:00,
2013-07-19 05:58:00,71.3,69.8,30.11,East,96,0.0,1.0,95,0.00,,,0.00,WUHU216DAVISVP2,2013-07-19 09:58:00,
2013-07-19 06:03:00,71.3,69.8,30.11,East,96,0.0,1.0,95,0.00,,,0.00,WUHU216DAVISVP2,2013-07-19 10:03:00,
2013-07-19 06:08:00,71.2,69.7,30.11,East,96,0.0,1.0,95,0.00,,,0.00,WUHU216DAVISVP2,2013-07-19 10:08:00,
2013-07-19 06:14:00,71.1,69.6,30.11,East,96,0.0,0.0,95,0.00,,,0.00,WUHU216DAVISVP2,2013-07-19 10:14:00,
2013-07-19 06:19:00,71.0,69.5,30.11,East,96,0.0,0.0,95,0.00,,,0.00,WUHU216DAVISVP2,2013-07-19 10:19:00,
2013-07-19 06:24:00,71.0,69.8,30.11,East,96,0.0,0.0,96,0.00,,,0.00,WUHU216DAVISVP2,2013-07-19 10:24:00,
2013-07-19 06:29:00,70.9,69.7,30.11,East,96,0.0,0.0,96,0.00,,,0.00,WUHU216DAVISVP2,2013-07-19 10:29:00,
2013-07-19 06:34:00,70.9,69.7,30.11,East,96,0.0,0.0,96,0.00,,,0.00,WUHU216DAVISVP2,2013-07-19 10:34:00,
2013-07-19 06:39:00,70.8,69.6,30.11,East,96,0.0,0.0,96,0.00,,,0.00,WUHU216DAVISVP2,2013-07-19 10:39:00,
2013-07-19 06:44:00,70.8,69.6,30.11,East,96,0.0,0.0,96,0.00,,,0.00,WUHU216DAVISVP2,2013-07-19 10:44:00,
2013-07-19 06:49:00,70.8,69.6,30.11,East,96,0.0,0.0,96,0.00,,,0.00,WUHU216DAVISVP2,2013-07-19 10:49:00,
2013-07-19 06:54:00,70.7,69.5,30.11,East,96,0.0,0.0,96,0.00,,,0.00,WUHU216DAVISVP2,2013-07-19 10:54:00,
2013-07-19 06:59:00,70.7,69.5,30.11,East,96,0.0,0.0,96,0.00,,,0.00,WUHU216DAVISVP2,2013-07-19 10:59:00,
2013-07-19 07:04:00,70.7,69.5,30.12,East,96,0.0,0.0,96,0.00,,,0.00,WUHU216DAVISVP2,2013-07-19 11:04:00,
2013-07-19 07:09:00,70.8,69.6,30.11,East,96,0.0,0.0,96,0.00,,,0.00,WUHU216DAVISVP2,2013-07-19 11:09:00,
2013-07-19 07:14:00,70.8,69.6,30.12,East,96,0.0,0.0,96,0.00,,,0.00,WUHU216DAVISVP2,2013-07-19 11:14:00,
2013-07-19 07:19:00,70.9,69.7,30.12,East,96,0.0,0.0,96,0.00,,,0.00,WUHU216DAVISVP2,2013-07-19 11:19:00,
2013-07-19 07:24:00,71.0,69.8,30.12,East,96,0.0,0.0,96,0.00,,,0.00,WUHU216DAVISVP2,2013-07-19 11:24:00,
2013-07-19 07:30:00,71.1,69.9,30.12,East,96,0.0,0.0,96,0.00,,,0.00,WUHU216DAVISVP2,2013-07-19 11:30:00,
2013-07-19 07:35:00,71.2,70.0,30.13,East,96,0.0,0.0,96,0.00,,,0.00,WUHU216DAVISVP2,2013-07-19 11:35:00,
2013-07-19 07:40:00,71.4,70.2,30.13,East,96,0.0,0.0,96,0.00,,,0.00,WUHU216DAVISVP2,2013-07-19 11:40:00,
2013-07-19 07:45:00,71.5,70.3,30.13,East,96,0.0,0.0,96,0.00,,,0.00,WUHU216DAVISVP2,2013-07-19 11:45:00,
2013-07-19 07:50:00,71.7,70.8,30.13,East,96,0.0,1.0,97,0.00,,,0.00,WUHU216DAVISVP2,2013-07-19 11:50:00,
2013-07-19 07:55:00,72.0,71.1,30.13,East,96,0.0,1.0,97,0.00,,,0.00,WUHU216DAVISVP2,2013-07-19 11:55:00,
2013-07-19 08:00:00,72.2,71.3,30.14,East,96,0.0,1.0,97,0.00,,,0.00,WUHU216DAVISVP2,2013-07-19 12:00:00,
2013-07-19 08:05:00,72.4,71.5,30.13,East,96,1.0,3.0,97,0.00,,,0.00,WUHU216DAVISVP2,2013-07-19 12:05:00,
2013-07-19 08:10:00,72.8,71.9,30.14,East,96,0.0,3.0,97,0.00,,,0.00,WUHU216DAVISVP2,2013-07-19 12:10:00,
2013-07-19 08:15:00,73.3,72.4,30.14,East,96,0.0,3.0,97,0.00,,,0.00,WUHU216DAVISVP2,2013-07-19 12:15:00,
2013-07-19 08:20:00,73.8,72.9,30.14,East,96,0.0,3.0,97,0.00,,,0.00,WUHU216DAVISVP2,2013-07-19 12:20:00,
2013-07-19 08:25:00,74.0,73.1,30.14,East,96,0.0,2.0,97,0.00,,,0.00,WUHU216DAVISVP2,2013-07-19 12:25:00,
2013-07-19 08:30:00,74.4,73.5,30.14,East,96,0.0,1.0,97,0.00,,,0.00,WUHU216DAVISVP2,2013-07-19 12:30:00,
2013-07-19 08:35:00,74.6,73.4,30.14,East,96,0.0,1.0,96,0.00,,,0.00,WUHU216DAVISVP2,2013-07-19 12:35:00,
2013-07-19 08:40:00,75.0,73.8,30.14,East,96,0.0,1.0,96,0.00,,,0.00,WUHU216DAVISVP2,2013-07-19 12:40:00,
2013-07-19 08:45:00,75.4,74.2,30.14,East,96,0.0,1.0,96,0.00,,,0.00,WUHU216DAVISVP2,2013-07-19 12:45:00,
2013-07-19 08:51:00,75.7,74.1,30.14,East,96,0.0,1.0,95,0.00,,,0.00,WUHU216DAVISVP2,2013-07-19 12:51:00,
2013-07-19 08:56:00,76.3,74.1,30.15,East,96,0.0,1.0,93,0.00,,,0.00,WUHU216DAVISVP2,2013-07-19 12:56:00,
2013-07-19 09:01:00,76.8,74.6,30.15,East,96,0.0,1.0,93,0.00,,,0.00,WUHU216DAVISVP2,2013-07-19 13:01:00,
2013-07-19 09:06:00,77.4,74.9,30.15,East,96,0.0,1.0,92,0.00,,,0.00,WUHU216DAVISVP2,2013-07-19 13:06:00,
2013-07-19 09:11:00,78.2,75.4,30.14,East,96,1.0,1.0,91,0.00,,,0.00,WUHU216DAVISVP2,2013-07-19 13:11:00,
2013-07-19 09:16:00,78.4,75.2,30.14,East,96,0.0,2.0,90,0.00,,,0.00,WUHU216DAVISVP2,2013-07-19 13:16:00,
2013-07-19 09:21:00,78.6,74.7,30.14,SW,223,0.0,3.0,88,0.00,,,0.00,WUHU216DAVISVP2,2013-07-19 13:21:00,
2013-07-19 09:26:00,78.9,74.7,30.14,SW,223,0.0,3.0,87,0.00,,,0.00,WUHU216DAVISVP2,2013-07-19 13:26:00,
2013-07-19 09:31:00,79.1,74.9,30.15,SW,223,0.0,3.0,87,0.00,,,0.00,WUHU216DAVISVP2,2013-07-19 13:31:00,
2013-07-19 09:36:00,79.6,75.4,30.15,SW,223,1.0,3.0,87,0.00,,,0.00,WUHU216DAVISVP2,2013-07-19 13:36:00,
2013-07-19 09:41:00,80.1,75.9,30.15,ESE,117,1.0,4.0,87,0.00,,,0.00,WUHU216DAVISVP2,2013-07-19 13:41:00,
2013-07-19 09:46:00,80.0,75.5,30.15,South,182,0.0,4.0,86,0.00,,,0.00,WUHU216DAVISVP2,2013-07-19 13:46:00,
2013-07-19 09:51:00,80.1,75.5,30.14,South,183,0.0,4.0,86,0.00,,,0.00,WUHU216DAVISVP2,2013-07-19 13:51:00,
2013-07-19 09:57:00,80.8,76.2,30.14,SSW,207,3.0,4.0,86,0.00,,,0.00,WUHU216DAVISVP2,2013-07-19 13:57:00,
2013-07-19 10:02:00,81.5,75.8,30.14,SSW,205,2.0,5.0,83,0.00,,,0.00,WUHU216DAVISVP2,2013-07-19 14:02:00,
2013-07-19 10:07:00,81.8,76.6,30.14,SSE,150,4.0,6.0,84,0.00,,,0.00,WUHU216DAVISVP2,2013-07-19 14:07:00,
2013-07-19 10:12:00,82.0,76.4,30.14,SW,216,4.0,6.0,83,0.00,,,0.00,WUHU216DAVISVP2,2013-07-19 14:12:00,
2013-07-19 10:17:00,82.8,76.5,30.14,SSW,209,1.0,6.0,81,0.00,,,0.00,WUHU216DAVISVP2,2013-07-19 14:17:00,
2013-07-19 10:22:00,83.6,77.6,30.14,East,92,3.0,6.0,82,0.00,,,0.00,WUHU216DAVISVP2,2013-07-19 14:22:00,
2013-07-19 10:27:00,84.5,78.5,30.14,SW,222,6.0,6.0,82,0.00,,,0.00,WUHU216DAVISVP2,2013-07-19 14:27:00,
2013-07-19 10:32:00,84.9,77.4,30.14,SW,216,1.0,6.0,78,0.00,,,0.00,WUHU216DAVISVP2,2013-07-19 14:32:00,
2013-07-19 10:37:00,85.2,77.0,30.14,South,184,3.0,6.0,76,0.00,,,0.00,WUHU216DAVISVP2,2013-07-19 14:37:00,
2013-07-19 10:42:00,85.5,77.6,30.14,South,187,1.0,6.0,77,0.00,,,0.00,WUHU216DAVISVP2,2013-07-19 14:42:00,
2013-07-19 10:47:00,86.0,77.7,30.14,SW,216,1.0,6.0,76,0.00,,,0.00,WUHU216DAVISVP2,2013-07-19 14:47:00,
2013-07-19 10:52:00,86.6,77.9,30.14,SW,229,2.0,7.0,75,0.00,,,0.00,WUHU216DAVISVP2,2013-07-19 14:52:00,
2013-07-19 10:57:00,86.9,78.6,30.14,SW,233,2.0,7.0,76,0.00,,,0.00,WUHU216DAVISVP2,2013-07-19 14:57:00,
2013-07-19 11:02:00,86.8,77.9,30.14,NW,309,0.0,7.0,75,0.00,,,0.00,WUHU216DAVISVP2,2013-07-19 15:02:00,
2013-07-19 11:07:00,86.4,77.1,30.14,WSW,238,0.0,7.0,74,0.00,,,0.00,WUHU216DAVISVP2,2013-07-19 15:07:00,
2013-07-19 11:13:00,86.6,77.5,30.14,South,177,0.0,4.0,74,0.00,,,0.00,WUHU216DAVISVP2,2013-07-19 15:13:00,
2013-07-19 11:18:00,86.9,78.8,30.14,SSW,209,1.0,5.0,77,0.00,,,0.00,WUHU216DAVISVP2,2013-07-19 15:18:00,
2013-07-19 11:23:00,87.4,79.5,30.14,SSW,209,0.0,5.0,77,0.00,,,0.00,WUHU216DAVISVP2,2013-07-19 15:23:00,
2013-07-19 11:28:00,87.7,78.6,30.13,SW,227,0.0,5.0,74,0.00,,,0.00,WUHU216DAVISVP2,2013-07-19 15:28:00,
2013-07-19 11:33:00,88.1,80.0,30.14,South,183,1.0,4.0,77,0.00,,,0.00,WUHU216DAVISVP2,2013-07-19 15:33:00,
2013-07-19 11:38:00,88.6,79.2,30.14,SW,230,4.0,6.0,74,0.00,,,0.00,WUHU216DAVISVP2,2013-07-19 15:38:00,
2013-07-19 11:43:00,88.3,78.4,30.14,WSW,238,0.0,6.0,72,0.00,,,0.00,WUHU216DAVISVP2,2013-07-19 15:43:00,
2013-07-19 11:48:00,87.9,79.2,30.14,SW,217,0.0,6.0,75,0.00,,,0.00,WUHU216DAVISVP2,2013-07-19 15:48:00,
2013-07-19 11:53:00,87.5,78.4,30.13,SW,217,1.0,6.0,74,0.00,,,0.00,WUHU216DAVISVP2,2013-07-19 15:53:00,
2013-07-19 11:58:00,86.7,77.8,30.14,SW,217,0.0,3.0,75,0.00,,,0.00,WUHU216DAVISVP2,2013-07-19 15:58:00,
2013-07-19 12:03:00,86.7,78.8,30.14,SW,217,0.0,3.0,77,0.00,,,0.00,WUHU216DAVISVP2,2013-07-19 16:03:00,
2013-07-19 12:08:00,86.9,78.2,30.13,SSW,213,0.0,3.0,75,0.00,,,0.00,WUHU216DAVISVP2,2013-07-19 16:08:00,
2013-07-19 12:13:00,87.2,79.7,30.13,SSW,213,0.0,4.0,78,0.00,,,0.00,WUHU216DAVISVP2,2013-07-19 16:13:00,
2013-07-19 12:18:00,87.6,79.1,30.13,SSW,207,0.0,5.0,76,0.00,,,0.00,WUHU216DAVISVP2,2013-07-19 16:18:00,
2013-07-19 12:23:00,88.4,77.6,30.13,SSW,206,0.0,5.0,70,0.00,,,0.00,WUHU216DAVISVP2,2013-07-19 16:23:00,
2013-07-19 12:29:00,88.6,77.0,30.13,SW,214,4.0,5.0,68,0.00,,,0.00,WUHU216DAVISVP2,2013-07-19 16:29:00,
2013-07-19 12:34:00,88.8,78.4,30.12,South,172,0.0,8.0,71,0.00,,,0.00,WUHU216DAVISVP2,2013-07-19 16:34:00,
2013-07-19 12:39:00,89.2,79.4,30.13,South,172,1.0,8.0,73,0.00,,,0.00,WUHU216DAVISVP2,2013-07-19 16:39:00,
2013-07-19 12:44:00,88.9,77.8,30.12,South,172,0.0,8.0,70,0.00,,,0.00,WUHU216DAVISVP2,2013-07-19 16:44:00,
2013-07-19 12:49:00,89.0,78.2,30.12,SSW,205,0.0,8.0,70,0.00,,,0.00,WUHU216DAVISVP2,2013-07-19 16:49:00,
2013-07-19 12:54:00,89.3,77.2,30.12,WNW,288,0.0,6.0,67,0.00,,,0.00,WUHU216DAVISVP2,2013-07-19 16:54:00,
2013-07-19 12:59:00,89.5,78.0,30.12,SSW,205,0.0,6.0,69,0.00,,,0.00,WUHU216DAVISVP2,2013-07-19 16:59:00,
2013-07-19 13:04:00,89.8,77.8,30.12,SSW,205,0.0,6.0,68,0.00,,,0.00,WUHU216DAVISVP2,2013-07-19 17:04:00,
2013-07-19 13:09:00,89.6,77.6,30.12,SSW,207,5.0,6.0,68,0.00,,,0.00,WUHU216DAVISVP2,2013-07-19 17:09:00,
2013-07-19 13:14:00,89.6,78.4,30.11,SW,214,1.0,6.0,69,0.00,,,0.00,WUHU216DAVISVP2,2013-07-19 17:14:00,
2013-07-19 13:19:00,89.8,77.4,30.11,SE,134,2.0,6.0,67,0.00,,,0.00,WUHU216DAVISVP2,2013-07-19 17:19:00,
2013-07-19 13:24:00,90.0,77.6,30.11,West,281,1.0,6.0,67,0.00,,,0.00,WUHU216DAVISVP2,2013-07-19 17:24:00,
2013-07-19 13:29:00,90.0,78.0,30.10,West,281,0.0,4.0,68,0.00,,,0.00,WUHU216DAVISVP2,2013-07-19 17:29:00,
2013-07-19 13:34:00,90.0,78.9,30.10,West,265,1.0,3.0,70,0.00,,,0.00,WUHU216DAVISVP2,2013-07-19 17:34:00,
2013-07-19 13:40:00,89.7,78.5,30.10,South,180,0.0,5.0,69,0.00,,,0.00,WUHU216DAVISVP2,2013-07-19 17:40:00,
2013-07-19 13:45:00,89.8,79.1,30.10,SW,221,1.0,5.0,71,0.00,,,0.00,WUHU216DAVISVP2,2013-07-19 17:45:00,
2013-07-19 13:50:00,89.9,77.9,30.09,South,187,0.0,5.0,68,0.00,,,0.00,WUHU216DAVISVP2,2013-07-19 17:50:00,
2013-07-19 13:55:00,90.0,77.4,30.09,South,182,0.0,5.0,66,0.00,,,0.00,WUHU216DAVISVP2,2013-07-19 17:55:00,
2013-07-19 14:00:00,90.1,78.8,30.09,South,183,0.0,4.0,69,0.00,,,0.00,WUHU216DAVISVP2,2013-07-19 18:00:00,
2013-07-19 14:05:00,90.1,78.1,30.09,South,183,0.0,4.0,68,0.00,,,0.00,WUHU216DAVISVP2,2013-07-19 18:05:00,
2013-07-19 14:10:00,90.2,76.4,30.09,SSW,211,1.0,6.0,64,0.00,,,0.00,WUHU216DAVISVP2,2013-07-19 18:10:00,
2013-07-19 14:15:00,90.4,75.6,30.09,SSW,195,2.0,6.0,62,0.00,,,0.00,WUHU216DAVISVP2,2013-07-19 18:15:00,
2013-07-19 14:20:00,90.5,76.7,30.08,SSW,196,0.0,6.0,64,0.00,,,0.00,WUHU216DAVISVP2,2013-07-19 18:20:00,
2013-07-19 14:25:00,90.3,74.8,30.08,SSW,196,0.0,5.0,60,0.00,,,0.00,WUHU216DAVISVP2,2013-07-19 18:25:00,
2013-07-19 14:30:00,90.6,76.1,30.08,SSW,195,0.0,4.0,62,0.00,,,0.00,WUHU216DAVISVP2,2013-07-19 18:30:00,
2013-07-19 14:35:00,90.7,73.9,30.08,SSW,195,0.0,4.0,58,0.00,,,0.00,WUHU216DAVISVP2,2013-07-19 18:35:00,
2013-07-19 14:40:00,90.6,73.8,30.07,SSE,168,0.0,5.0,58,0.00,,,0.00,WUHU216DAVISVP2,2013-07-19 18:40:00,
2013-07-19 14:45:00,90.6,74.8,30.07,SSE,168,2.0,5.0,60,0.00,,,0.00,WUHU216DAVISVP2,2013-07-19 18:45:00,
2013-07-19 14:50:00,90.9,75.1,30.07,WNW,290,2.0,5.0,60,0.00,,,0.00,WUHU216DAVISVP2,2013-07-19 18:50:00,
2013-07-19 14:56:00,90.8,72.9,30.07,SSW,212,1.0,5.0,56,0.00,,,0.00,WUHU216DAVISVP2,2013-07-19 18:56:00,
2013-07-19 15:01:00,91.1,74.3,30.06,SSW,211,0.0,4.0,58,0.00,,,0.00,WUHU216DAVISVP2,2013-07-19 19:01:00,
2013-07-19 15:06:00,91.1,74.6,30.06,SSW,212,2.0,4.0,58,0.00,,,0.00,WUHU216DAVISVP2,2013-07-19 19:06:00,
2013-07-19 15:11:00,91.1,73.5,30.06,SSW,207,0.0,4.0,56,0.00,,,0.00,WUHU216DAVISVP2,2013-07-19 19:11:00,
2013-07-19 15:16:00,91.3,74.7,30.06,SSW,207,1.0,4.0,58,0.00,,,0.00,WUHU216DAVISVP2,2013-07-19 19:16:00,
2013-07-19 15:21:00,91.4,74.3,30.05,SSW,207,0.0,4.0,57,0.00,,,0.00,WUHU216DAVISVP2,2013-07-19 19:21:00,
2013-07-19 15:26:00,91.4,74.8,30.05,SSW,210,0.0,4.0,58,0.00,,,0.00,WUHU216DAVISVP2,2013-07-19 19:26:00,
2013-07-19 15:31:00,91.4,74.3,30.05,SSW,211,1.0,4.0,57,0.00,,,0.00,WUHU216DAVISVP2,2013-07-19 19:31:00,
2013-07-19 15:36:00,91.5,75.5,30.04,South,188,0.0,4.0,59,0.00,,,0.00,WUHU216DAVISVP2,2013-07-19 19:36:00,
2013-07-19 15:41:00,91.6,76.1,30.04,South,188,0.0,4.0,60,0.00,,,0.00,WUHU216DAVISVP2,2013-07-19 19:41:00,
2013-07-19 15:46:00,91.6,74.0,30.04,SSW,212,0.0,4.0,56,0.00,,,0.00,WUHU216DAVISVP2,2013-07-19 19:46:00,
2013-07-19 15:51:00,91.5,76.5,30.04,SSW,213,0.0,4.0,61,0.00,,,0.00,WUHU216DAVISVP2,2013-07-19 19:51:00,
2013-07-19 15:56:00,91.4,74.8,30.04,SSW,212,0.0,2.0,58,0.00,,,0.00,WUHU216DAVISVP2,2013-07-19 19:56:00,
2013-07-19 16:01:00,90.8,74.3,30.03,SSW,212,0.0,2.0,58,0.00,,,0.00,WUHU216DAVISVP2,2013-07-19 20:01:00,
2013-07-19 16:07:00,90.5,77.0,30.03,SSW,212,0.0,2.0,64,0.00,,,0.00,WUHU216DAVISVP2,2013-07-19 20:07:00,
2013-07-19 16:12:00,90.4,74.4,30.03,SSW,212,0.0,3.0,59,0.00,,,0.00,WUHU216DAVISVP2,2013-07-19 20:12:00,
2013-07-19 16:17:00,90.2,73.7,30.02,SSW,213,0.0,3.0,58,0.00,,,0.00,WUHU216DAVISVP2,2013-07-19 20:17:00,
2013-07-19 16:22:00,90.1,76.6,30.02,SSW,202,0.0,3.0,64,0.00,,,0.00,WUHU216DAVISVP2,2013-07-19 20:22:00,
2013-07-19 16:27:00,89.9,75.9,30.02,SSW,193,2.0,3.0,63,0.00,,,0.00,WUHU216DAVISVP2,2013-07-19 20:27:00,
2013-07-19 16:32:00,89.8,74.9,30.02,WNW,284,2.0,3.0,61,0.00,,,0.00,WUHU216DAVISVP2,2013-07-19 20:32:00,
2013-07-19 16:37:00,89.8,75.8,30.02,WNW,284,0.0,3.0,63,0.00,,,0.00,WUHU216DAVISVP2,2013-07-19 20:37:00,
2013-07-19 16:42:00,89.4,74.7,30.02,WNW,284,0.0,3.0,62,0.00,,,0.00,WUHU216DAVISVP2,2013-07-19 20:42:00,
2013-07-19 16:47:00,88.8,76.3,30.02,WNW,284,0.0,3.0,66,0.00,,,0.00,WUHU216DAVISVP2,2013-07-19 20:47:00,
2013-07-19 16:52:00,88.4,75.9,30.02,WNW,284,0.0,2.0,66,0.00,,,0.00,WUHU216DAVISVP2,2013-07-19 20:52:00,
2013-07-19 16:57:00,88.0,75.7,30.02,WNW,284,0.0,2.0,67,0.00,,,0.00,WUHU216DAVISVP2,2013-07-19 20:57:00,
2013-07-19 17:02:00,88.1,75.1,30.01,WNW,284,0.0,2.0,65,0.00,,,0.00,WUHU216DAVISVP2,2013-07-19 21:02:00,
2013-07-19 17:07:00,88.4,75.0,30.01,WNW,286,2.0,3.0,64,0.00,,,0.00,WUHU216DAVISVP2,2013-07-19 21:07:00,
2013-07-19 17:12:00,88.5,76.4,30.01,WNW,286,0.0,3.0,67,0.00,,,0.00,WUHU216DAVISVP2,2013-07-19 21:12:00,
2013-07-19 17:18:00,88.4,77.2,30.01,WNW,286,2.0,3.0,69,0.00,,,0.00,WUHU216DAVISVP2,2013-07-19 21:18:00,
2013-07-19 17:23:00,88.3,76.2,30.01,WNW,286,1.0,3.0,67,0.00,,,0.00,WUHU216DAVISVP2,2013-07-19 21:23:00,
2013-07-19 17:28:00,88.4,76.5,30.01,WNW,286,0.0,2.0,68,0.00,,,0.00,WUHU216DAVISVP2,2013-07-19 21:28:00,
2013-07-19 17:33:00,88.6,77.6,30.01,WSW,258,1.0,3.0,70,0.00,,,0.00,WUHU216DAVISVP2,2013-07-19 21:33:00,
2013-07-19 17:38:00,88.6,77.6,30.01,WSW,257,0.0,3.0,70,0.00,,,0.00,WUHU216DAVISVP2,2013-07-19 21:38:00,
2013-07-19 17:43:00,88.6,75.8,30.01,WSW,257,0.0,3.0,66,0.00,,,0.00,WUHU216DAVISVP2,2013-07-19 21:43:00,
2013-07-19 17:48:00,88.4,76.5,30.01,WSW,257,0.0,3.0,68,0.00,,,0.00,WUHU216DAVISVP2,2013-07-19 21:48:00,
2013-07-19 17:53:00,88.2,76.7,30.00,East,98,2.0,6.0,69,0.00,,,0.00,WUHU216DAVISVP2,2013-07-19 21:53:00,
2013-07-19 17:58:00,88.1,76.6,30.00,SSW,206,0.0,6.0,69,0.00,,,0.00,WUHU216DAVISVP2,2013-07-19 21:58:00,
2013-07-19 18:03:00,88.2,76.1,30.00,SSW,204,1.0,8.0,67,0.00,,,0.00,WUHU216DAVISVP2,2013-07-19 22:03:00,
2013-07-19 18:08:00,88.3,76.7,30.00,SW,220,1.0,8.0,68,0.00,,,0.00,WUHU216DAVISVP2,2013-07-19 22:08:00,
2013-07-19 18:13:00,88.3,75.8,29.99,SW,223,0.0,8.0,66,0.00,,,0.00,WUHU216DAVISVP2,2013-07-19 22:13:00,
2013-07-19 18:18:00,88.1,76.5,30.00,SSW,206,0.0,8.0,68,0.00,,,0.00,WUHU216DAVISVP2,2013-07-19 22:18:00,
2013-07-19 18:23:00,87.9,77.2,29.99,SSW,212,0.0,5.0,70,0.00,,,0.00,WUHU216DAVISVP2,2013-07-19 22:23:00,
2013-07-19 18:28:00,87.7,76.1,30.00,SSW,213,0.0,5.0,68,0.00,,,0.00,WUHU216DAVISVP2,2013-07-19 22:28:00,
2013-07-19 18:33:00,87.7,76.1,29.99,SSW,198,3.0,5.0,68,0.00,,,0.00,WUHU216DAVISVP2,2013-07-19 22:33:00,
2013-07-19 18:39:00,87.8,76.2,29.99,SSW,197,1.0,5.0,68,0.00,,,0.00,WUHU216DAVISVP2,2013-07-19 22:39:00,
2013-07-19 18:44:00,87.7,75.8,29.99,SSW,197,1.0,4.0,68,0.00,,,0.00,WUHU216DAVISVP2,2013-07-19 22:44:00,
2013-07-19 18:49:00,87.6,75.7,29.99,SSW,198,0.0,3.0,68,0.00,,,0.00,WUHU216DAVISVP2,2013-07-19 22:49:00,
2013-07-19 18:54:00,87.4,76.4,29.99,SSW,198,0.0,3.0,70,0.00,,,0.00,WUHU216DAVISVP2,2013-07-19 22:54:00,
2013-07-19 18:59:00,87.1,76.8,29.99,SSW,197,0.0,3.0,71,0.00,,,0.00,WUHU216DAVISVP2,2013-07-19 22:59:00,
2013-07-19 19:04:00,87.0,76.3,29.99,SSW,198,0.0,3.0,70,0.00,,,0.00,WUHU216DAVISVP2,2013-07-19 23:04:00,
2013-07-19 19:09:00,86.9,77.8,29.99,SSW,198,0.0,2.0,74,0.00,,,0.00,WUHU216DAVISVP2,2013-07-19 23:09:00,
2013-07-19 19:14:00,86.6,77.1,29.99,SSW,197,0.0,1.0,73,0.00,,,0.00,WUHU216DAVISVP2,2013-07-19 23:14:00,
2013-07-19 19:19:00,86.5,77.0,30.00,SSW,198,0.0,1.0,73,0.00,,,0.00,WUHU216DAVISVP2,2013-07-19 23:19:00,
2013-07-19 19:24:00,86.1,77.8,29.99,SSW,198,0.0,0.0,76,0.00,,,0.00,WUHU216DAVISVP2,2013-07-19 23:24:00,
2013-07-19 19:29:00,85.9,78.0,29.99,SSW,197,0.0,0.0,77,0.00,,,0.00,WUHU216DAVISVP2,2013-07-19 23:29:00,
2013-07-19 19:34:00,85.7,78.6,30.00,SSW,198,0.0,0.0,79,0.00,,,0.00,WUHU216DAVISVP2,2013-07-19 23:34:00,
2013-07-19 19:39:00,85.5,78.8,30.00,SSW,197,0.0,0.0,80,0.00,,,0.00,WUHU216DAVISVP2,2013-07-19 23:39:00,
2013-07-19 19:44:00,85.3,78.9,30.00,SSW,198,0.0,0.0,81,0.00,,,0.00,WUHU216DAVISVP2,2013-07-19 23:44:00,
2013-07-19 19:49:00,85.0,78.6,30.00,SSW,198,0.0,0.0,81,0.00,,,0.00,WUHU216DAVISVP2,2013-07-19 23:49:00,
2013-07-19 19:54:00,84.7,78.7,30.00,SSW,197,0.0,0.0,82,0.00,,,0.00,WUHU216DAVISVP2,2013-07-19 23:54:00,
2013-07-19 20:00:00,84.2,78.1,30.00,SSW,198,0.0,0.0,82,0.00,,,0.00,WUHU216DAVISVP2,2013-07-20 00:00:00,
2013-07-19 20:05:00,83.8,77.5,30.00,SSW,198,0.0,0.0,81,0.00,,,0.00,WUHU216DAVISVP2,2013-07-20 00:05:00,
2013-07-19 20:10:00,83.4,77.4,30.00,SSW,197,0.0,0.0,82,0.00,,,0.00,WUHU216DAVISVP2,2013-07-20 00:10:00,
2013-07-19 20:15:00,83.0,77.0,30.00,SSW,197,0.0,0.0,82,0.00,,,0.00,WUHU216DAVISVP2,2013-07-20 00:15:00,
2013-07-19 20:20:00,82.6,77.0,30.00,SSW,198,0.0,0.0,83,0.00,,,0.00,WUHU216DAVISVP2,2013-07-20 00:20:00,
2013-07-19 20:25:00,82.2,76.3,30.00,SSW,197,0.0,0.0,82,0.00,,,0.00,WUHU216DAVISVP2,2013-07-20 00:25:00,
2013-07-19 20:30:00,82.0,76.8,30.00,SSW,198,0.0,0.0,84,0.00,,,0.00,WUHU216DAVISVP2,2013-07-20 00:30:00,
2013-07-19 20:35:00,81.7,76.5,30.00,SSW,198,0.0,1.0,84,0.00,,,0.00,WUHU216DAVISVP2,2013-07-20 00:35:00,
2013-07-19 20:40:00,81.4,76.2,30.01,SSW,198,0.0,1.0,84,0.00,,,0.00,WUHU216DAVISVP2,2013-07-20 00:40:00,
2013-07-19 20:45:00,81.0,75.8,30.01,SSW,197,0.0,1.0,84,0.00,,,0.00,WUHU216DAVISVP2,2013-07-20 00:45:00,
2013-07-19 20:50:00,80.6,75.4,30.01,SSW,198,0.0,1.0,84,0.00,,,0.00,WUHU216DAVISVP2,2013-07-20 00:50:00,
2013-07-19 20:55:00,80.3,75.4,30.01,SSW,198,0.0,1.0,85,0.00,,,0.00,WUHU216DAVISVP2,2013-07-20 00:55:00,
2013-07-19 21:00:00,80.0,75.4,30.01,SSW,198,0.0,1.0,86,0.00,,,0.00,WUHU216DAVISVP2,2013-07-20 01:00:00,
2013-07-19 21:05:00,79.7,75.2,30.02,SSW,198,0.0,1.0,86,0.00,,,0.00,WUHU216DAVISVP2,2013-07-20 01:05:00,
2013-07-19 21:10:00,79.4,74.9,30.02,SSW,198,0.0,1.0,86,0.00,,,0.00,WUHU216DAVISVP2,2013-07-20 01:10:00,
2013-07-19 21:15:00,79.1,74.6,30.02,SSW,198,0.0,1.0,86,0.00,,,0.00,WUHU216DAVISVP2,2013-07-20 01:15:00,
2013-07-19 21:21:00,79.0,74.8,30.02,SSW,197,0.0,1.0,87,0.00,,,0.00,WUHU216DAVISVP2,2013-07-20 01:21:00,
2013-07-19 21:26:00,78.8,74.6,30.02,SSW,198,0.0,0.0,87,0.00,,,0.00,WUHU216DAVISVP2,2013-07-20 01:26:00,
2013-07-19 21:31:00,78.7,74.5,30.02,SSW,198,0.0,0.0,87,0.00,,,0.00,WUHU216DAVISVP2,2013-07-20 01:31:00,
2013-07-19 21:36:00,78.6,74.8,30.02,SSW,198,0.0,0.0,88,0.00,,,0.00,WUHU216DAVISVP2,2013-07-20 01:36:00,
2013-07-19 21:41:00,78.5,74.7,30.02,SSW,198,0.0,0.0,88,0.00,,,0.00,WUHU216DAVISVP2,2013-07-20 01:41:00,
2013-07-19 21:46:00,78.4,74.6,30.03,SSW,198,0.0,0.0,88,0.00,,,0.00,WUHU216DAVISVP2,2013-07-20 01:46:00,
2013-07-19 21:51:00,78.2,74.4,30.03,SSW,198,0.0,0.0,88,0.00,,,0.00,WUHU216DAVISVP2,2013-07-20 01:51:00,
2013-07-19 21:56:00,78.2,74.7,30.04,SSW,197,0.0,0.0,89,0.00,,,0.00,WUHU216DAVISVP2,2013-07-20 01:56:00,
2013-07-19 22:01:00,78.0,74.5,30.04,SSW,198,0.0,0.0,89,0.00,,,0.00,WUHU216DAVISVP2,2013-07-20 02:01:00,
2013-07-19 22:06:00,77.8,74.3,30.04,SSW,198,0.0,0.0,89,0.00,,,0.00,WUHU216DAVISVP2,2013-07-20 02:06:00,
2013-07-19 22:11:00,77.7,74.2,30.04,SSW,198,0.0,0.0,89,0.00,,,0.00,WUHU216DAVISVP2,2013-07-20 02:11:00,
2013-07-19 22:16:00,77.5,74.0,30.04,SSW,198,0.0,0.0,89,0.00,,,0.00,WUHU216DAVISVP2,2013-07-20 02:16:00,
2013-07-19 22:21:00,77.3,73.5,30.04,SSW,197,0.0,0.0,88,0.00,,,0.00,WUHU216DAVISVP2,2013-07-20 02:21:00,
2013-07-19 22:26:00,77.4,73.9,30.04,SSW,198,0.0,0.0,89,0.00,,,0.00,WUHU216DAVISVP2,2013-07-20 02:26:00,
2013-07-19 22:31:00,77.4,73.9,30.04,SSW,198,0.0,0.0,89,0.00,,,0.00,WUHU216DAVISVP2,2013-07-20 02:31:00,
2013-07-19 22:36:00,77.5,74.0,30.04,SSW,197,0.0,0.0,89,0.00,,,0.00,WUHU216DAVISVP2,2013-07-20 02:36:00,
2013-07-19 22:42:00,77.5,74.0,30.04,SSW,198,0.0,0.0,89,0.00,,,0.00,WUHU216DAVISVP2,2013-07-20 02:42:00,
2013-07-19 22:47:00,77.4,73.9,30.04,SSW,197,0.0,0.0,89,0.00,,,0.00,WUHU216DAVISVP2,2013-07-20 02:47:00,
2013-07-19 22:52:00,77.3,73.8,30.04,SSW,197,0.0,0.0,89,0.00,,,0.00,WUHU216DAVISVP2,2013-07-20 02:52:00,
2013-07-19 22:57:00,77.2,73.7,30.05,SSW,198,0.0,0.0,89,0.00,,,0.00,WUHU216DAVISVP2,2013-07-20 02:57:00,
2013-07-19 23:02:00,77.0,73.5,30.04,SSW,198,0.0,0.0,89,0.00,,,0.00,WUHU216DAVISVP2,2013-07-20 03:02:00,
2013-07-19 23:07:00,76.9,73.7,30.04,SSW,198,0.0,0.0,90,0.00,,,0.00,WUHU216DAVISVP2,2013-07-20 03:07:00,
2013-07-19 23:12:00,76.8,73.6,30.05,SSW,197,0.0,0.0,90,0.00,,,0.00,WUHU216DAVISVP2,2013-07-20 03:12:00,
2013-07-19 23:17:00,76.6,73.4,30.05,SSW,198,0.0,0.0,90,0.00,,,0.00,WUHU216DAVISVP2,2013-07-20 03:17:00,
2013-07-19 23:22:00,76.5,73.7,30.05,SSW,198,0.0,0.0,91,0.00,,,0.00,WUHU216DAVISVP2,2013-07-20 03:22:00,
2013-07-19 23:27:00,76.4,73.6,30.05,SSW,198,0.0,0.0,91,0.00,,,0.00,WUHU216DAVISVP2,2013-07-20 03:27:00,
2013-07-19 23:32:00,76.2,73.4,30.05,SSW,197,0.0,0.0,91,0.00,,,0.00,WUHU216DAVISVP2,2013-07-20 03:32:00,
2013-07-19 23:37:00,76.1,73.3,30.05,SSW,198,0.0,0.0,91,0.00,,,0.00,WUHU216DAVISVP2,2013-07-20 03:37:00,
2013-07-19 23:43:00,76.0,73.5,30.05,SSW,198,0.0,0.0,92,0.00,,,0.00,WUHU216DAVISVP2,2013-07-20 03:43:00,
2013-07-19 23:48:00,76.0,73.5,30.05,SSW,197,0.0,0.0,92,0.00,,,0.00,WUHU216DAVISVP2,2013-07-20 03:48:00,
2013-07-19 23:53:00,75.9,73.4,30.05,SSW,198,0.0,0.0,92,0.00,,,0.00,WUHU216DAVISVP2,2013-07-20 03:53:00,
2013-07-19 23:58:00,75.8,73.3,30.05,SSW,198,0.0,0.0,92,0.00,,,0.00,WUHU216DAVISVP2,2013-07-20 03:58:00,